Regional Weather Roundup
Issued by NWS Newport/Morehead, NC

Current Version | Previous Version | Text Only | Print | Product List | Glossary Off
Versions: 1 2 3 4 5 6 7 8 9 10 11 12 13 14 15 16 17 18 19 20 21 22 23 24 25 26 27 28 29 30 31 32 33 34 35 36 37 38 39 40 41 42 43 44 45 46 47 48 49 50
000 ASUS42 KMHX 210025 RWRMHX WEATHER ROUNDUP FOR EASTERN NORTH CAROLINA NATIONAL WEATHER SERVICE NEWPORT/MOREHEAD CITY NC 700 PM EST TUE FEB 20 2018 NOTE: "FAIR" INDICATES FEW OR NO CLOUDS BELOW 12,000 FEET WITH NO SIGNIFICANT WEATHER AND/OR OBSTRUCTIONS TO VISIBILITY NCZ015>017-031-032-045>047-102-103-210100- NORTH COAST CITY SKY/WX TMP DP RH WIND PRES REMARKS EDENTON FAIR 67 63 86 S9 30.44R ELIZABETH CITY FAIR 70 66 87 S12G21 30.42S KITTY HAWK FAIR N/A N/A N/A S6 30.44S MANTEO FAIR 60 60 97 S10 30.46S $$ NCZ045>047-081-094-103-104-210100- CENTRAL COAST CITY SKY/WX TMP DP RH WIND PRES REMARKS FRISCO CLOUDY 66 64 93 S8 30.48R $$ NCZ095-097-098-100-101-210100- SOUTHERN COAST CITY SKY/WX TMP DP RH WIND PRES REMARKS BEAUFORT CLOUDY 68 64 87 S7 30.47R CEDAR ISLAND NOT AVBL JACKSONVILLE CLOUDY 69 66 90 S6 30.45R PINEY ISLAND NOT AVBL WILMINGTON FAIR 69 66 90 S7 30.45R $$ NCZ011>013-027>030-043-044-078>080-089-090>093-098-210100- COASTAL PLAIN CITY SKY/WX TMP DP RH WIND PRES REMARKS AHOSKIE FOG 61 61 100 CALM 30.42R VSB 3/4 CLINTON FAIR 71 63 75 S5 30.43R ELIZABETHTOWN NOT AVBL GOLDSBORO FAIR 72 64 73 S8 30.40R GREENVILLE FAIR 70 63 78 S14 30.43R HAVELOCK NOT AVBL KENANSVILLE FAIR 70 64 83 S6 30.44R KINSTON FAIR 72 63 73 S10 30.44R NEW BERN FAIR 68 65 90 S7 30.46R RICHLANDS FAIR 68 65 90 S6 30.45R ROCKY MOUNT MOCLDY 67 61 81 S5 30.41R WASHINGTON FAIR 70 64 82 S8 30.44S WHITEVILLE FAIR 70 63 79 SE5 30.42S $$ AMZ130-135-150-152-154-156-158-170-250-252-270-ANZ085-086-088-633-658-670-210100- MARINE OBSERVATIONS STATION/POSITION TIME TEMP WIND PRES WAVE SWELL AIR SEA DIR/SP/G HT/PER HT/PER (UTC) (F) (DEG/KT/KT) (MB) (FT/S) (FT/S) CHESAPEAKE LIGHT NOT AVBL 64 E VA BEACH 2350 57 51 180/ 14/ 14 1031.7 4/12 3/12 DUCK 0000 68 46 180/ 18/ 20 1030.1 2 E DUCK 0000 45 N/A 3/12 2/12 OREGON INLET 0000 60 55 170/ 8/ 10 1031.5 13E OREGON INLT 2348 47 N/A 4/11 3/11 HATTERAS CG 0000 64 58 170/ 6/ 7 1031.8 DIAMOND BUOY 0010 72 72 180/ 16/ 17 1032.2 CAPE LOOKOUT 2300 160/ 5/ 5 1031.9 BEAUFORT LAB 0000 66 58 160/ 7/ 10 1031.8 30 SE NEW RVR IN 2308 71 70 170/ 10/ 14 1031.4 30 SE NEW RVR IN 0000 70 N/A 4/12 2/12 27 SE WRIGHTSVLE 2308 70 69 170/ 10/ 14 1031.2 5 SE WRIGHTSVLE 0008 61 57 170/ 4/ 8 1031.0 225 S CAPE HAT 2350 72 74 110/ 12/ 16 1032.5 5/ 6 3/ 6 41 SE CHARLESTON 0010 71 69 120/ 6/ 8 1030.2 $$

USA.gov is the U.S. government's official web portal to all federal, state and local government web resources and services.